Wind_Speed
22 21 22 23 21 22 22 22 22 23 23 23 25 24 24 24 24 24 23 24 23 22 23 23 23 22 22 22 22 22 22 23 24 24 24 24 24 25 25 26 26 26 27 27
23 22 22 23 22 22 22 22 23 24 25 24 25 25 24 24 24 23 23 24 24 23 23 23 23 22 22 22 22 23 23 23 24 24 24 25 25 25 26 26 26 26 27 26
24 21 22 24 22 22 23 24 24 25 26 26 26 25 24 23 24 23 24 23 23 23 23 23 23 22 22 23 23 23 24 24 25 25 25 26 25 26 26 26 26 26 26 27
24 22 24 22 21 22 24 26 25 24 25 26 26 25 25 25 25 24 24 23 24 24 23 23 23 23 23 23 24 24 24 24 24 25 26 26 26 26 26 26 27 27 27 26
24 23 23 21 21 22 24 25 25 25 25 25 26 26 25 24 24 24 24 24 24 25 24 24 23 23 23 24 23 24 24 25 25 26 27 26 26 26 26 27 27 27 27 26
24 24 24 23 23 23 24 26 26 26 26 26 27 26 26 24 24 25 25 25 25 25 24 23 23 23 24 23 23 24 25 25 26 27 27 27 27 27 27 27 27 27 26 27
25 26 26 26 25 24 25 26 26 27 28 28 27 26 25 25 25 26 26 25 25 25 24 23 23 23 23 23 23 24 25 26 27 28 28 27 27 28 28 27 27 27 26 26
27 28 27 26 27 27 27 26 26 27 27 27 27 26 26 26 25 26 26 25 24 24 24 23 24 24 24 23 24 25 26 27 28 28 28 28 28 28 28 27 27 27 27 27
28 30 30 29 28 28 28 27 27 27 27 27 27 27 26 25 25 24 24 24 25 25 25 24 24 24 24 24 25 25 27 27 27 27 27 28 28 29 29 28 28 27 27 26
30 30 30 30 30 30 29 28 28 28 28 28 28 28 26 26 24 24 24 24 25 25 25 24 23 23 24 24 25 25 26 26 26 26 27 28 28 29 28 28 28 27 26 26
31 30 30 29 30 29 29 28 28 28 29 29 28 27 27 26 25 24 24 25 25 26 25 24 23 24 25 25 25 26 26 26 27 27 28 28 29 29 28 28 28 27 27 27
32 32 32 31 31 30 29 28 27 28 29 29 28 28 27 26 26 26 25 26 26 26 25 25 25 25 25 25 26 26 26 26 27 28 29 30 30 30 28 28 27 27 27 27
32 33 33 32 32 31 29 28 28 28 28 28 27 27 26 26 26 26 26 26 27 26 26 26 26 26 26 26 26 26 27 28 29 29 30 30 30 30 29 28 26 25 26 26
31 32 32 31 31 31 30 29 28 28 28 28 27 27 27 27 27 27 27 27 27 27 27 27 27 26 26 26 26 27 28 29 29 30 30 30 29 28 27 26 25 26 26 26
30 30 29 29 29 29 29 29 29 29 28 28 28 28 28 28 27 27 28 28 27 27 28 27 27 27 27 27 27 27 27 28 29 29 29 29 28 27 25 25 25 25 24 24
28 29 29 29 29 29 29 29 29 29 29 29 29 28 28 28 29 28 28 28 28 28 28 28 27 26 26 26 26 27 27 28 29 29 28 28 27 26 25 24 23 23 23 22
27 27 28 29 29 29 29 30 30 30 30 30 30 30 30 29 29 29 29 29 29 28 27 27 27 26 26 26 27 28 28 28 29 29 28 27 26 25 24 23 23 23 22 22
27 28 29 29 29 30 30 30 30 30 30 30 30 30 29 29 29 29 28 28 28 28 27 27 27 26 27 27 28 28 28 28 28 28 27 27 26 25 24 24 23 22 22 22
28 28 28 28 29 29 29 30 29 29 29 29 29 28 28 28 28 28 28 28 27 27 27 28 27 27 28 28 28 28 28 28 28 28 27 26 25 25 25 24 23 22 22 21
26 27 28 28 28 28 28 28 28 28 27 27 27 27 27 28 28 28 28 28 29 29 28 28 28 28 28 29 29 29 28 27 27 27 26 25 25 24 24 23 22 21 21 22
25 25 26 26 26 27 27 27 26 26 26 26 27 27 27 27 27 27 28 28 28 28 27 27 27 27 28 28 28 28 27 26 26 26 26 25 25 24 23 22 21 21 21 22
24 24 25 25 26 25 26 25 25 25 25 25 25 26 26 26 26 26 27 27 27 27 27 27 27 27 27 27 27 27 26 26 26 26 25 24 24 23 22 21 21 21 21 22
23 23 24 24 24 24 24 24 24 24 24 24 24 25 25 25 25 26 26 26 27 26 26 27 27 27 26 26 26 26 26 26 25 25 24 23 23 22 22 21 21 21 22 22
22 22 22 22 22 22 23 23 23 24 24 24 24 24 24 25 25 26 26 26 26 26 26 26 26 26 26 26 26 26 25 25 24 24 23 22 22 22 22 22 22 22 22 22
22 22 22 22 22 22 22 23 23 23 24 25 24 24 24 24 25 25 25 25 26 26 26 26 25 25 25 24 24 25 24 23 23 22 22 21 22 22 22 22 22 22 22 22
21 21 21 22 22 22 22 22 22 23 24 24 24 23 23 23 23 24 24 24 24 24 24 24 24 23 23 23 23 23 23 22 22 21 21 21 22 22 21 21 22 22 21 21
21 21 21 21 21 22 22 23 23 23 23 24 24 24 24 23 23 23 24 23 23 23 23 23 22 21 21 22 22 22 23 23 23 22 22 22 22 22 22 22 21 21 21 22
Wind_Direction
261 258 257 258 259 257 257 261 268 274 276 279 284 283 285 290 294 297 296 296 295 296 298 299 299 298 295 295 294 295 296 297 297 298 299 300 300 301 300 299 297 296 296 295
262 260 258 260 259 261 262 262 267 271 273 280 280 282 286 287 293 298 296 298 298 299 300 301 300 298 296 296 295 295 297 297 297 299 299 299 298 298 299 299 299 298 297 296
262 260 259 259 260 264 267 266 266 268 272 275 279 281 282 287 291 293 295 300 301 300 300 300 300 298 296 297 297 297 297 298 298 299 299 298 297 297 297 299 300 299 298 298
264 263 260 265 266 264 264 266 266 268 273 275 277 279 280 283 285 290 294 297 299 301 301 301 299 296 295 296 297 298 298 298 298 300 300 300 299 299 299 300 301 300 299 298
266 264 262 262 264 264 263 264 266 270 273 274 275 280 282 284 286 287 290 294 296 297 298 299 297 295 296 295 296 297 298 298 300 302 303 302 302 303 303 303 302 300 300 299
266 265 265 264 260 261 261 261 265 270 272 274 276 278 282 285 287 288 288 290 292 295 297 297 294 294 295 294 296 297 299 300 302 303 303 303 303 304 304 303 303 301 299 299
262 264 265 264 264 265 264 264 269 271 272 272 275 277 280 283 285 288 288 289 291 293 295 294 293 293 292 294 295 297 299 300 301 302 302 302 303 304 303 303 303 302 300 299
262 262 261 261 264 264 266 270 271 273 275 275 276 278 280 282 285 285 287 289 291 292 294 294 293 293 291 293 295 297 299 301 301 301 302 302 302 303 303 303 304 302 300 299
260 263 266 264 266 268 269 271 272 275 276 275 276 278 282 284 286 285 285 288 291 292 292 292 293 294 295 295 296 297 299 300 301 302 304 305 305 304 303 301 302 301 299 299
260 265 266 266 265 268 270 271 272 275 276 275 277 279 281 282 283 284 285 287 290 292 290 288 290 293 296 298 300 301 302 303 303 305 305 306 307 306 304 302 300 300 299 298
258 263 264 266 269 271 274 273 274 275 276 276 275 276 278 280 282 284 286 287 288 290 290 289 291 293 295 296 299 302 303 304 305 307 307 308 309 309 306 303 300 299 299 298
259 263 266 268 270 270 272 275 275 275 275 275 275 277 278 279 281 283 285 286 288 288 287 288 290 293 294 297 299 300 301 304 305 307 307 308 309 308 306 304 302 300 299 298
259 263 266 267 269 269 271 273 274 275 275 275 275 276 277 279 282 282 283 285 287 288 287 287 289 291 293 296 298 299 301 303 305 307 308 308 308 307 307 304 302 299 299 298
259 262 264 265 266 268 270 272 274 274 274 274 274 277 278 280 281 281 282 284 285 286 285 285 288 290 293 296 297 299 300 302 304 306 308 308 308 307 306 304 303 302 299 298
259 260 261 263 264 267 269 272 273 273 273 273 275 277 280 280 279 279 281 283 284 286 286 287 288 289 291 294 296 298 299 301 303 305 307 308 308 306 304 303 303 303 301 299
261 260 261 263 264 266 269 270 272 272 272 274 276 278 279 280 280 281 281 282 283 285 286 286 287 287 288 290 294 296 298 301 303 306 306 306 306 306 304 304 304 304 304 304
260 260 262 262 263 266 269 271 272 275 276 277 277 277 277 278 279 280 281 282 283 284 285 285 284 286 287 289 292 294 297 301 303 305 306 306 306 306 305 305 305 304 305 306
262 263 263 263 264 267 270 272 274 275 277 277 276 275 275 276 278 280 281 281 281 282 283 284 283 283 285 289 292 295 298 300 302 303 304 305 305 305 304 303 303 302 304 306
265 265 264 265 266 267 269 270 272 274 274 275 275 275 276 277 279 280 281 281 279 281 282 283 283 283 286 291 292 293 295 296 298 301 302 303 302 302 302 301 299 299 301 304
265 266 268 270 269 269 271 272 274 275 274 274 275 277 279 279 280 281 281 282 282 282 282 283 282 284 286 288 291 292 293 295 298 299 300 301 300 299 300 299 299 298 298 302
268 270 271 271 270 269 271 272 274 275 273 274 276 278 279 280 280 280 282 283 283 283 283 283 285 286 287 288 290 290 291 292 294 295 297 297 298 298 297 297 298 298 299 299
269 269 271 271 271 270 270 272 274 275 275 274 276 278 280 281 281 280 282 283 284 284 283 284 286 287 288 289 288 288 290 291 292 292 293 294 296 296 294 294 296 298 299 300
270 271 273 273 272 270 270 271 273 275 276 276 278 280 282 282 283 284 285 285 285 284 285 286 287 288 288 288 287 288 290 290 290 289 289 291 293 293 291 291 294 296 298 300
272 272 273 274 274 274 273 273 275 276 278 279 280 281 283 285 286 287 288 287 285 284 284 284 286 286 286 286 286 287 289 289 288 289 288 289 290 291 292 290 291 295 297 298
271 273 274 275 274 275 276 276 276 279 280 280 281 283 285 287 289 290 289 288 286 286 285 285 285 285 286 285 284 285 286 287 289 289 288 288 289 291 292 291 291 293 294 295
272 272 273 273 274 275 278 279 278 280 282 283 284 286 286 288 290 290 289 289 289 289 289 288 287 286 286 285 285 284 285 287 290 290 289 289 290 291 291 291 292 292 292 293
275 273 273 274 276 277 278 278 279 280 282 284 285 286 287 287 289 290 289 289 289 290 290 289 288 286 285 283 283 283 284 286 287 288 289 289 290 289 288 290 292 292 291 292
Height
5808 5809 5810 5811 5812 5813 5813 5812 5812 5811 5810 5809 5806 5804 5801 5799 5797 5796 5794 5792 5790 5788 5786 5784 5783 5781 5780 5778 5776 5774 5772 5770 5768 5766 5764 5762 5760 5757 5755 5753 5750 5748 5745 5743
5802 5803 5803 5803 5805 5806 5806 5806 5806 5805 5804 5802 5801 5799 5797 5795 5793 5791 5789 5787 5785 5783 5781 5779 5778 5776 5775 5773 5771 5769 5767 5765 5762 5760 5758 5756 5754 5751 5749 5747 5744 5741 5739 5736
5795 5797 5797 5797 5800 5800 5800 5799 5800 5799 5798 5796 5795 5793 5792 5790 5789 5787 5785 5782 5780 5778 5777 5775 5773 5771 5770 5768 5766 5764 5762 5759 5757 5754 5752 5750 5748 5745 5743 5740 5737 5735 5732 5729
5789 5791 5790 5794 5794 5794 5794 5792 5792 5791 5790 5790 5788 5787 5786 5785 5784 5782 5780 5778 5776 5773 5771 5770 5768 5766 5764 5763 5761 5759 5756 5754 5751 5749 5746 5744 5741 5739 5736 5733 5731 5728 5725 5722
5782 5783 5784 5786 5786 5787 5786 5785 5784 5784 5784 5783 5782 5780 5779 5779 5777 5776 5775 5773 5771 5769 5767 5764 5762 5760 5759 5757 5755 5753 5751 5748 5746 5743 5741 5738 5735 5732 5729 5726 5724 5721 5718 5715
5776 5776 5777 5779 5778 5778 5779 5777 5777 5777 5777 5776 5775 5775 5774 5773 5772 5770 5769 5767 5766 5763 5761 5759 5757 5755 5753 5751 5749 5747 5745 5743 5740 5738 5735 5732 5729 5726 5722 5719 5717 5713 5711 5708
5769 5769 5770 5771 5771 5771 5772 5770 5770 5769 5769 5769 5768 5768 5767 5766 5765 5763 5762 5760 5759 5757 5755 5753 5751 5750 5748 5745 5743 5741 5739 5737 5734 5731 5728 5725 5722 5719 5716 5713 5710 5707 5704 5701
5763 5763 5765 5764 5764 5764 5764 5763 5763 5763 5762 5761 5761 5760 5760 5758 5757 5756 5755 5754 5752 5751 5749 5747 5745 5744 5742 5739 5737 5735 5733 5730 5727 5725 5721 5718 5715 5712 5709 5706 5703 5700 5697 5694
5756 5756 5756 5756 5756 5756 5756 5756 5757 5757 5756 5755 5755 5754 5752 5751 5750 5749 5749 5747 5746 5744 5743 5741 5739 5737 5735 5733 5731 5729 5726 5724 5721 5718 5715 5711 5708 5705 5701 5698 5695 5692 5689 5687
5747 5747 5747 5748 5748 5749 5750 5750 5750 5750 5749 5748 5748 5747 5745 5744 5743 5743 5742 5741 5739 5738 5736 5734 5732 5731 5729 5727 5724 5722 5720 5717 5714 5711 5708 5704 5701 5697 5694 5690 5688 5685 5682 5680
5740 5740 5739 5740 5741 5742 5742 5742 5741 5742 5741 5741 5740 5739 5738 5738 5737 5736 5735 5734 5732 5731 5729 5727 5726 5724 5722 5720 5718 5716 5713 5710 5707 5704 5701 5697 5693 5689 5686 5683 5679 5677 5674 5672
5732 5732 5732 5732 5733 5734 5734 5733 5733 5734 5733 5733 5732 5731 5731 5730 5729 5728 5728 5726 5725 5723 5722 5720 5719 5717 5715 5713 5711 5708 5706 5703 5700 5697 5693 5689 5686 5682 5678 5674 5671 5669 5666 5664
5724 5724 5724 5725 5725 5725 5725 5725 5725 5725 5725 5725 5724 5724 5723 5722 5722 5721 5720 5719 5717 5716 5714 5713 5712 5710 5708 5706 5704 5702 5699 5696 5693 5690 5686 5682 5678 5674 5670 5667 5664 5661 5659 5656
5715 5715 5716 5716 5717 5717 5716 5716 5717 5717 5717 5716 5716 5716 5715 5714 5714 5713 5712 5711 5709 5708 5706 5705 5704 5702 5701 5699 5697 5694 5692 5689 5686 5682 5678 5674 5670 5666 5663 5660 5657 5654 5652 5649
5706 5707 5708 5708 5709 5709 5709 5709 5709 5709 5708 5708 5708 5707 5707 5706 5705 5705 5704 5703 5701 5700 5698 5697 5696 5695 5693 5691 5689 5687 5684 5681 5678 5675 5671 5667 5663 5660 5656 5653 5651 5648 5645 5643
5698 5699 5700 5700 5700 5701 5701 5701 5701 5700 5700 5700 5699 5699 5698 5698 5697 5696 5695 5694 5693 5692 5690 5689 5688 5686 5685 5683 5681 5679 5676 5673 5670 5667 5664 5660 5657 5653 5650 5647 5645 5642 5639 5637
5691 5691 5692 5692 5693 5693 5693 5693 5692 5692 5692 5691 5691 5690 5689 5689 5688 5687 5687 5685 5684 5683 5682 5681 5679 5678 5676 5675 5673 5671 5668 5666 5663 5660 5657 5654 5650 5647 5644 5641 5639 5636 5634 5631
5683 5683 5683 5684 5684 5685 5685 5684 5684 5683 5683 5682 5682 5681 5680 5679 5679 5678 5677 5676 5675 5675 5674 5672 5671 5670 5668 5667 5665 5663 5661 5658 5656 5653 5650 5647 5644 5641 5638 5636 5633 5630 5628 5626
5675 5675 5676 5676 5676 5676 5676 5676 5676 5675 5674 5674 5673 5672 5671 5670 5669 5669 5668 5667 5667 5666 5665 5664 5663 5661 5660 5659 5657 5655 5653 5651 5648 5646 5643 5640 5638 5635 5632 5630 5627 5625 5622 5620
5667 5668 5668 5668 5668 5668 5668 5668 5668 5667 5666 5665 5665 5664 5663 5662 5661 5661 5660 5659 5658 5657 5656 5655 5654 5653 5652 5650 5649 5647 5645 5643 5640 5638 5636 5634 5631 5629 5626 5624 5621 5619 5617 5615
5660 5660 5660 5660 5660 5660 5660 5660 5660 5659 5658 5657 5657 5656 5655 5654 5653 5652 5651 5651 5649 5648 5647 5646 5645 5644 5643 5642 5640 5639 5637 5635 5633 5631 5629 5627 5625 5623 5620 5618 5616 5614 5612 5610
5653 5653 5653 5653 5653 5653 5652 5652 5652 5651 5650 5650 5649 5648 5647 5646 5645 5644 5643 5642 5641 5639 5638 5638 5637 5636 5634 5633 5632 5631 5629 5627 5626 5624 5622 5620 5618 5616 5614 5612 5610 5609 5606 5604
5646 5647 5646 5646 5646 5645 5645 5645 5644 5644 5643 5642 5642 5641 5640 5638 5637 5636 5635 5634 5633 5631 5630 5629 5629 5628 5627 5625 5624 5623 5621 5620 5618 5616 5615 5613 5611 5610 5608 5606 5605 5603 5601 5599
5640 5640 5640 5639 5639 5639 5638 5638 5637 5637 5636 5635 5634 5633 5632 5631 5630 5628 5627 5626 5625 5623 5622 5621 5620 5619 5618 5617 5616 5615 5614 5612 5611 5609 5608 5606 5605 5604 5602 5600 5598 5597 5595 5593
5634 5633 5633 5633 5632 5632 5632 5631 5631 5630 5629 5628 5627 5626 5625 5624 5622 5621 5619 5618 5617 5615 5614 5613 5612 5611 5610 5609 5609 5608 5607 5605 5604 5603 5601 5600 5599 5597 5596 5594 5592 5590 5588 5587
5627 5627 5626 5626 5625 5625 5625 5624 5623 5623 5622 5620 5620 5619 5617 5616 5615 5613 5612 5610 5609 5608 5606 5606 5605 5604 5603 5602 5601 5600 5599 5598 5597 5596 5595 5593 5592 5591 5589 5587 5586 5584 5582 5580
5621 5621 5620 5619 5619 5618 5618 5617 5616 5615 5614 5613 5612 5611 5610 5608 5607 5606 5604 5603 5602 5600 5599 5598 5597 5596 5595 5594 5594 5593 5592 5591 5590 5589 5588 5587 5585 5584 5582 5581 5579 5578 5576 5574